Flagstaff, AZ

1:12 AM MST on October 18, 2017 (GMT -0700)
Flagstaff Pulliam

Weather History for KFLG - September, 2012

Change the Weather History Date:

Saturday, September 8, 2012

  Actual Average Record
Temperature  
Mean Temperature 62 °F 60 °F  
Max Temperature 76 °F 75 °F 88 °F (1977)
Min Temperature 48 °F 45 °F 33 °F (1935)
Degree Days  
Heating Degree Days 3 5  
Month to date heating degree days 9 34  
Since 1 July heating degree days 43 122  
Cooling Degree Days 0 0  
Month to date cooling degree days 0 0  
Year to date cooling degree days 164 114  
Growing Degree Days 12 (Base 50)    
Moisture  
Dew Point 43 °F    
Average Humidity 54    
Maximum Humidity 83    
Minimum Humidity 25    
Precipitation  
Precipitation 0.00 in 0.08 in 1.07 in (2011)
Month to date precipitation 0.07 0.71  
Year to date precipitation 10.57 14.90  
Snow  
Snow 0.00 in 0.00 in 0.00 in (2002)
Month to date snowfall 0.0 0.0  
Since 1 July snowfall 0.0 0.0  
Snow Depth 0.00 in    
Sea Level Pressure  
Sea Level Pressure 30.06 in    
Wind  
Wind Speed 5 mph (ENE)    
Max Wind Speed 16 mph    
Max Gust Speed 24 mph    
Visibility 10 miles    
Events      
T = Trace of Precipitation, MM = Missing Value Source: NWS Daily Summary

Daily Weather History Graph

Daily Weather History Graph

Search for Another Location

Airport or City:

Trip Planner

Search our weather history database for the weather conditions in past years. The results will help you decide how hot, cold, wet, or windy it might be!

Date:

Astronomy

Sep. 08, 2012 Rise Set
Actual Time 6:04 AM MST 6:42 PM MST
Civil Twilight 5:39 AM MST 7:08 PM MST
Nautical Twilight 5:09 AM MST 7:38 PM MST
Astronomical Twilight 4:38 AM MST 8:09 PM MST
Moon 11:47 PM MST (9/8) 1:33 PM MST (9/8)
Length of Visible Light 13h 29m
Length of Day
12h 38m
Waning Gibbous, 48% of the Moon is Illuminated
Sep 8
Waning Gibbous
Sep 15
New
Sep 22
First Quarter
Sep 29
Full
Oct 8
Last Quarter

Hourly Weather History & Observations

Time (MST) Temp. Dew Point Humidity Pressure Visibility Wind Dir Wind Speed Gust Speed Precip Events Conditions
12:57 AM 64.0 °F 42.1 °F 45% 30.02 in 10.0 mi ENE 6.9 mph - N/A   Clear
1:57 AM 62.1 °F 41.0 °F 46% 30.03 in 10.0 mi NE 5.8 mph - N/A   Clear
2:57 AM 59.0 °F 42.1 °F 53% 30.04 in 10.0 mi East 4.6 mph - N/A   Clear
3:57 AM 57.9 °F 44.1 °F 60% 30.06 in 10.0 mi NE 4.6 mph - N/A   Clear
4:57 AM 55.9 °F 46.0 °F 69% 30.08 in 10.0 mi Calm Calm - N/A   Clear
7:57 AM 63.0 °F 52.0 °F 67% 30.12 in 10.0 mi NE 9.2 mph - N/A   Clear
9:57 AM 71.1 °F 51.1 °F 49% 30.12 in 10.0 mi ENE 9.2 mph 17.3 mph N/A   Clear
10:57 AM 72.0 °F 50.0 °F 46% 30.12 in 10.0 mi East 8.1 mph 19.6 mph N/A   Clear
12:57 PM 75.0 °F 37.0 °F 25% 30.05 in 10.0 mi East 8.1 mph 20.7 mph N/A   Clear
1:57 PM 75.0 °F 41.0 °F 29% 30.04 in 10.0 mi East 12.7 mph 19.6 mph N/A   Mostly Cloudy
2:57 PM 73.9 °F 39.0 °F 28% 30.03 in 10.0 mi East 9.2 mph - N/A   Mostly Cloudy
3:57 PM 73.0 °F 37.9 °F 28% 30.02 in 10.0 mi ESE 10.4 mph 16.1 mph N/A   Scattered Clouds
4:57 PM 73.0 °F 39.9 °F 30% 30.03 in 10.0 mi East 5.8 mph - N/A   Partly Cloudy
5:57 PM 72.0 °F 39.9 °F 31% 30.04 in 10.0 mi NE 4.6 mph - N/A   Partly Cloudy
6:57 PM 64.0 °F 43.0 °F 46% 30.07 in 10.0 mi Calm Calm - N/A   Clear
7:57 PM 61.0 °F 44.1 °F 54% 30.05 in 10.0 mi Calm Calm - N/A   Clear
8:57 PM 57.0 °F 44.1 °F 62% 30.07 in 10.0 mi Calm Calm - N/A   Clear
9:57 PM 54.0 °F 43.0 °F 66% 30.08 in 10.0 mi SW 5.8 mph - N/A   Clear
10:57 PM 50.0 °F 42.1 °F 74% 30.10 in 10.0 mi Calm Calm - N/A   Clear
11:57 PM 48.9 °F 41.0 °F 74% 30.09 in 10.0 mi Calm Calm - N/A   Clear